User: anonymous   Login
Location: Unspecified
(0.0000°N, 0.0000°E)
Time: 22:00:06
(UTC+00:00)
Language:

OBJECT PQ - Orbit

View from above orbital plane
View from above orbital plane
View from above satellite
View from above satellite

Ground track
Ground track

The orbit data is extracted from the following two-line orbital elements,

1 43640U 98067PQ  18343.85498173 +.00007050 +00000-0 +10836-3 0  9994
2 43640 051.6381 222.7886 0006669 104.5715 255.6016 15.55446617009994
Epoch (UTC): 09 December 2018 20:31:10
Eccentricity: 0.0006669
inclination: 51.6381°
perigee height: 396 km
apogee height: 405 km
right ascension of ascending node: 222.7886°
argument of perigee: 104.5715°
revolutions per day: 15.55446617
mean anomaly at epoch: 255.6016°
orbit number at epoch: 999

The dashed part of the orbit path shows where the satellite is in the earth's shadow,  

DLR